Jesup, GA

12:19 AM EDT on March 25, 2017 (GMT -0400)
Jesup-Wayne County

Weather History for KJES - November, 2013

Change the Weather History Date:

Friday, November 8, 2013

  Actual Average (KLHW) Record (KLHW)
Temperature  
Mean Temperature 50 °F -  
Max Temperature 62 °F 71 °F 84 °F (2000)
Min Temperature 39 °F 48 °F 30 °F (2007)
Degree Days  
Heating Degree Days 14    
Moisture  
Dew Point 41 °F    
Average Humidity 70    
Maximum Humidity 100    
Minimum Humidity 39    
Precipitation  
Precipitation 0.00 in - - ()
Sea Level Pressure  
Sea Level Pressure 30.21 in    
Wind  
Wind Speed 7 mph (NE)    
Max Wind Speed 16 mph    
Max Gust Speed 24 mph    
Visibility 10 miles    
Events      
Averages and records for this station are not official NWS values.
T = Trace of Precipitation, MM = Missing Value Source: NWS Daily Summary

Daily Weather History Graph

Daily Weather History Graph

Search for Another Location

Airport or City:

Trip Planner

Search our weather history database for the weather conditions in past years. The results will help you decide how hot, cold, wet, or windy it might be!

Date:

Astronomy

Nov. 08, 2013 Rise Set
Actual Time 6:49 AM EST 5:32 PM EST
Civil Twilight 6:24 AM EST 5:58 PM EST
Nautical Twilight 5:55 AM EST 6:27 PM EST
Astronomical Twilight 5:26 AM EST 6:55 PM EST
Moon 11:44 AM EST (11/8) 10:50 PM EST (11/8)
Length of Visible Light 11h 33m
Length of Day
10h 43m
Waxing Crescent, 33% of the Moon is Illuminated
Nov 8
Waxing Crescent
Nov 10
First Quarter
Nov 17
Full
Nov 25
Last Quarter
Dec 2
New

Hourly Weather History & Observations

Time (EST) Temp. Windchill Dew Point Humidity Pressure Visibility Wind Dir Wind Speed Gust Speed Precip Events Conditions
12:15 AM 53.6 °F - 44.6 °F 72% 30.10 in 10.0 mi NNW 5.8 mph - N/A   Clear
12:35 AM 53.6 °F - 44.6 °F 72% 30.11 in 10.0 mi NNW 6.9 mph - N/A   Clear
12:55 AM 53.6 °F - 44.6 °F 72% 30.10 in 10.0 mi NNW 6.9 mph - N/A   Clear
1:15 AM 51.8 °F - 44.6 °F 76% 30.11 in 10.0 mi North 8.1 mph - N/A   Clear
1:35 AM 51.8 °F - 44.6 °F 76% 30.11 in 10.0 mi North 6.9 mph - N/A   Clear
1:55 AM 51.8 °F - 44.6 °F 76% 30.11 in 10.0 mi NNW 5.8 mph - N/A   Clear
2:15 AM 51.8 °F - 42.8 °F 71% 30.11 in 10.0 mi North 4.6 mph - N/A   Clear
2:35 AM 50.0 °F - 42.8 °F 76% 30.12 in 10.0 mi North 6.9 mph - N/A   Clear
2:55 AM 50.0 °F - 42.8 °F 76% 30.12 in 10.0 mi North 4.6 mph - N/A   Clear
3:15 AM 50.0 °F - 42.8 °F 76% 30.13 in 10.0 mi North 5.8 mph - N/A   Clear
3:35 AM 50.0 °F - 42.8 °F 76% 30.13 in 10.0 mi North 6.9 mph - N/A   Clear
3:55 AM 50.0 °F - 42.8 °F 76% 30.13 in 10.0 mi North 6.9 mph - N/A   Clear
4:15 AM 48.2 °F - 42.8 °F 82% 30.13 in 10.0 mi NNE 6.9 mph - N/A   Clear
4:35 AM 48.2 °F - 42.8 °F 82% 30.14 in 10.0 mi North 6.9 mph - N/A   Clear
4:55 AM 48.2 °F - 42.8 °F 82% 30.16 in 10.0 mi North 6.9 mph - N/A   Clear
5:15 AM 48.2 °F - 41.0 °F 76% 30.16 in 10.0 mi NNE 8.1 mph - N/A   Clear
5:35 AM 46.4 °F 43.5 °F 41.0 °F 81% 30.17 in 10.0 mi NNE 5.8 mph - N/A   Clear
5:55 AM 46.4 °F 42.4 °F 41.0 °F 81% 30.18 in 10.0 mi NNE 8.1 mph - N/A   Clear
6:15 AM 46.4 °F 41.9 °F 41.0 °F 81% 30.18 in 10.0 mi NNE 9.2 mph - N/A   Clear
6:35 AM 46.4 °F 42.9 °F 41.0 °F 81% 30.19 in 10.0 mi NE 6.9 mph - N/A   Clear
6:55 AM 46.4 °F 42.4 °F 39.2 °F 76% 30.20 in 10.0 mi NE 8.1 mph - N/A   Clear
7:15 AM 46.4 °F 41.9 °F 39.2 °F 76% 30.21 in 10.0 mi NE 9.2 mph - N/A   Mostly Cloudy
7:35 AM 48.2 °F - 39.2 °F 71% 30.22 in 10.0 mi NE 10.4 mph - N/A   Overcast
7:55 AM 48.2 °F - 39.2 °F 71% 30.23 in 10.0 mi NE 9.2 mph 16.1 mph N/A   Scattered Clouds
8:15 AM 50.0 °F - 39.2 °F 66% 30.23 in 10.0 mi ENE 12.7 mph 18.4 mph N/A   Scattered Clouds
8:35 AM 50.0 °F - 39.2 °F 66% 30.24 in 10.0 mi ENE 12.7 mph 20.7 mph N/A   Clear
8:55 AM 51.8 °F - 39.2 °F 62% 30.25 in 10.0 mi NE 13.8 mph 20.7 mph N/A   Clear
9:15 AM 53.6 °F - 39.2 °F 58% 30.26 in 10.0 mi ENE 12.7 mph 18.4 mph N/A   Clear
9:35 AM 53.6 °F - 37.4 °F 54% 30.26 in 10.0 mi ENE 13.8 mph 24.2 mph N/A   Clear
9:55 AM 55.4 °F - 37.4 °F 51% 30.26 in 10.0 mi ENE 15.0 mph 19.6 mph N/A   Clear
10:15 AM 55.4 °F - 37.4 °F 51% 30.27 in 10.0 mi NE 15.0 mph 20.7 mph N/A   Clear
10:35 AM 55.4 °F - 37.4 °F 51% 30.27 in 10.0 mi NE 16.1 mph 20.7 mph N/A   Clear
10:55 AM 57.2 °F - 37.4 °F 48% 30.27 in 10.0 mi NNE 12.7 mph 16.1 mph N/A   Clear
11:15 AM 59.0 °F - 37.4 °F 45% 30.27 in 10.0 mi ENE 12.7 mph 16.1 mph N/A   Clear
11:35 AM 59.0 °F - 37.4 °F 45% 30.26 in 10.0 mi NE 10.4 mph 18.4 mph N/A   Clear
11:55 AM 59.0 °F - 37.4 °F 45% 30.25 in 10.0 mi ENE 9.2 mph 16.1 mph N/A   Clear
12:15 PM 60.8 °F - 37.4 °F 42% 30.25 in 10.0 mi East 11.5 mph 16.1 mph N/A   Clear
12:35 PM 60.8 °F - 39.2 °F 45% 30.24 in 10.0 mi East 9.2 mph 17.3 mph N/A   Clear
12:55 PM 60.8 °F - 37.4 °F 42% 30.24 in 10.0 mi ENE 9.2 mph - N/A   Clear
1:15 PM 62.6 °F - 37.4 °F 39% 30.23 in 10.0 mi ENE 12.7 mph - N/A   Clear
1:35 PM 62.6 °F - 37.4 °F 39% 30.22 in 10.0 mi ENE 12.7 mph 18.4 mph N/A   Clear
1:55 PM 62.6 °F - 37.4 °F 39% 30.22 in 10.0 mi NE 6.9 mph - N/A   Clear
2:15 PM 62.6 °F - 39.2 °F 42% 30.21 in 10.0 mi NNE 10.4 mph - N/A   Clear
2:35 PM 62.6 °F - 39.2 °F 42% 30.21 in 10.0 mi NE 10.4 mph - N/A   Clear
2:55 PM 62.6 °F - 39.2 °F 42% 30.21 in 10.0 mi NNE 8.1 mph - N/A   Clear
3:15 PM 62.6 °F - 39.2 °F 42% 30.21 in 10.0 mi ENE 6.9 mph - N/A   Clear
3:35 PM 62.6 °F - 39.2 °F 42% 30.21 in 10.0 mi NE 5.8 mph - N/A   Clear
3:55 PM 62.6 °F - 39.2 °F 42% 30.21 in 10.0 mi ENE 6.9 mph - N/A   Clear
4:15 PM 62.6 °F - 39.2 °F 42% 30.21 in 10.0 mi ENE 4.6 mph - N/A   Clear
4:35 PM 60.8 °F - 39.2 °F 45% 30.22 in 10.0 mi ENE 5.8 mph - N/A   Clear
4:55 PM 60.8 °F - 41.0 °F 48% 30.22 in 10.0 mi NE 3.5 mph - N/A   Clear
5:15 PM 59.0 °F - 42.8 °F 55% 30.22 in 10.0 mi ENE 3.5 mph - N/A   Clear
5:35 PM 55.4 °F - 42.8 °F 63% 30.23 in 10.0 mi Calm Calm - N/A   Clear
5:55 PM 51.8 °F - 44.6 °F 76% 30.23 in 10.0 mi Calm Calm - N/A   Clear
6:15 PM 50.0 °F - 44.6 °F 82% 30.24 in 10.0 mi Calm Calm - N/A   Clear
6:35 PM 46.4 °F - 44.6 °F 93% 30.24 in 10.0 mi Calm Calm - N/A   Clear
6:55 PM 46.4 °F - 44.6 °F 93% 30.25 in 10.0 mi Calm Calm - N/A   Clear
7:15 PM 46.4 °F - 44.6 °F 93% 30.25 in 10.0 mi Calm Calm - N/A   Clear
7:35 PM 44.6 °F - 42.8 °F 93% 30.25 in 10.0 mi Calm Calm - N/A   Clear
7:55 PM 42.8 °F - 42.8 °F 100% 30.26 in 10.0 mi Calm Calm - N/A   Clear
8:15 PM 42.8 °F - 42.8 °F 100% 30.26 in 10.0 mi Calm Calm - N/A   Clear
8:35 PM 42.8 °F - 42.8 °F 100% 30.27 in 10.0 mi Calm Calm - N/A   Clear
8:55 PM 42.8 °F - 42.8 °F 100% 30.27 in 10.0 mi Calm Calm - N/A   Clear
9:15 PM 42.8 °F - 42.8 °F 100% 30.27 in 10.0 mi Calm Calm - N/A   Clear
9:35 PM 41.0 °F - 41.0 °F 100% 30.27 in 10.0 mi Calm Calm - N/A   Clear
9:55 PM 41.0 °F - 41.0 °F 100% 30.27 in 10.0 mi Calm Calm - N/A   Clear
10:15 PM 41.0 °F - 41.0 °F 100% 30.28 in 10.0 mi Calm Calm - N/A   Clear
10:35 PM 41.0 °F - 41.0 °F 100% 30.28 in 10.0 mi Calm Calm - N/A   Clear
10:55 PM 41.0 °F - 41.0 °F 100% 30.27 in 10.0 mi Calm Calm - N/A   Clear
11:15 PM 39.2 °F - 39.2 °F 100% 30.27 in 10.0 mi Calm Calm - N/A   Clear
11:35 PM 39.2 °F - 39.2 °F 100% 30.27 in 10.0 mi Calm Calm - N/A   Clear
11:55 PM 41.0 °F 39.0 °F 41.0 °F 100% 30.27 in 10.0 mi NE 3.5 mph - N/A   Clear